Time,TemperatureF,DewpointF,PressureIn,WindDirection,WindDirectionDegrees,WindSpeedMPH,WindSpeedGustMPH,Humidity,HourlyPrecipIn,Conditions,Clouds,dailyrainin,SoftwareType,DateUTC
2013-02-13 00:00:00,14.0,11.0,-100.00,NE,51,6.0,11.0,86,0.00,,,0.00,,2013-02-13 09:00:00,
2013-02-13 00:32:00,14.0,11.0,-100.00,NE,51,6.0,11.0,86,0.00,,,0.00,,2013-02-13 09:32:00,
2013-02-13 00:42:00,14.0,11.0,-100.00,NE,51,6.0,11.0,86,0.00,,,0.00,,2013-02-13 09:42:00,
2013-02-13 00:52:00,14.0,11.0,-100.00,NE,51,6.0,11.0,86,0.00,,,0.00,,2013-02-13 09:52:00,
2013-02-13 01:00:00,13.0,10.0,-100.00,NE,44,6.0,11.0,86,-99.99,,,0.00,,2013-02-13 10:00:00,
2013-02-13 01:32:00,13.0,10.0,-100.00,NE,44,6.0,11.0,86,-99.99,,,0.00,,2013-02-13 10:32:00,
2013-02-13 01:42:00,13.0,10.0,-100.00,NE,44,6.0,11.0,86,-99.99,,,0.00,,2013-02-13 10:42:00,
2013-02-13 01:52:00,13.0,10.0,-100.00,NE,44,6.0,11.0,86,-99.99,,,0.00,,2013-02-13 10:52:00,
2013-02-13 02:00:00,13.0,10.0,-100.00,NE,48,6.0,10.0,86,0.00,,,0.00,,2013-02-13 11:00:00,
2013-02-13 02:32:00,13.0,10.0,-100.00,NE,48,6.0,10.0,86,0.00,,,0.00,,2013-02-13 11:32:00,
2013-02-13 02:42:00,13.0,10.0,-100.00,NE,48,6.0,10.0,86,0.00,,,0.00,,2013-02-13 11:42:00,
2013-02-13 02:52:00,13.0,10.0,-100.00,NE,48,6.0,10.0,86,0.00,,,0.00,,2013-02-13 11:52:00,
2013-02-13 03:00:00,14.0,11.0,-100.00,NE,44,6.0,11.0,86,0.00,,,0.00,,2013-02-13 12:00:00,
2013-02-13 03:32:00,14.0,11.0,-100.00,NE,44,6.0,11.0,86,0.00,,,0.00,,2013-02-13 12:32:00,
2013-02-13 03:42:00,14.0,11.0,-100.00,NE,44,6.0,11.0,86,0.00,,,0.00,,2013-02-13 12:42:00,
2013-02-13 03:52:00,14.0,11.0,-100.00,NE,44,6.0,11.0,86,0.00,,,0.00,,2013-02-13 12:52:00,
2013-02-13 04:00:00,14.0,10.0,-100.00,NE,51,7.0,11.0,85,-99.99,,,0.00,,2013-02-13 13:00:00,
2013-02-13 04:32:00,14.0,10.0,-100.00,NE,51,7.0,11.0,85,-99.99,,,0.00,,2013-02-13 13:32:00,
2013-02-13 04:42:00,14.0,10.0,-100.00,NE,51,7.0,11.0,85,-99.99,,,0.00,,2013-02-13 13:42:00,
2013-02-13 04:52:00,14.0,10.0,-100.00,NE,51,7.0,11.0,85,-99.99,,,0.00,,2013-02-13 13:52:00,
2013-02-13 05:00:00,14.0,10.0,-100.00,NE,52,6.0,13.0,84,0.00,,,0.00,,2013-02-13 14:00:00,
2013-02-13 05:32:00,14.0,10.0,-100.00,NE,52,6.0,13.0,84,0.00,,,0.00,,2013-02-13 14:32:00,
2013-02-13 05:42:00,14.0,10.0,-100.00,NE,52,6.0,13.0,84,0.00,,,0.00,,2013-02-13 14:42:00,
2013-02-13 05:52:00,14.0,10.0,-100.00,NE,52,6.0,13.0,84,0.00,,,0.00,,2013-02-13 14:52:00,
2013-02-13 06:00:00,14.0,10.0,-100.00,NE,49,7.0,10.0,83,0.00,,,0.00,,2013-02-13 15:00:00,
2013-02-13 06:32:00,14.0,10.0,-100.00,NE,49,7.0,10.0,83,0.00,,,0.00,,2013-02-13 15:32:00,
2013-02-13 06:42:00,14.0,10.0,-100.00,NE,49,7.0,10.0,83,0.00,,,0.00,,2013-02-13 15:42:00,
2013-02-13 06:52:00,14.0,10.0,-100.00,NE,49,7.0,10.0,83,0.00,,,0.00,,2013-02-13 15:52:00,
2013-02-13 07:00:00,14.0,10.0,-100.00,NE,52,7.0,12.0,82,0.00,,,0.00,,2013-02-13 16:00:00,
2013-02-13 07:32:00,14.0,10.0,-100.00,NE,52,7.0,12.0,82,0.00,,,0.00,,2013-02-13 16:32:00,
2013-02-13 07:42:00,14.0,10.0,-100.00,NE,52,7.0,12.0,82,0.00,,,0.00,,2013-02-13 16:42:00,
2013-02-13 07:52:00,14.0,10.0,-100.00,NE,52,7.0,12.0,82,0.00,,,0.00,,2013-02-13 16:52:00,
2013-02-13 08:00:00,15.0,10.0,-100.00,NE,54,7.0,11.0,81,0.00,,,0.00,,2013-02-13 17:00:00,
2013-02-13 08:32:00,15.0,10.0,-100.00,NE,54,7.0,11.0,81,0.00,,,0.00,,2013-02-13 17:32:00,
2013-02-13 08:42:00,15.0,10.0,-100.00,NE,54,7.0,11.0,81,0.00,,,0.00,,2013-02-13 17:42:00,
2013-02-13 08:52:00,15.0,10.0,-100.00,NE,54,7.0,11.0,81,0.00,,,0.00,,2013-02-13 17:52:00,
2013-02-13 09:00:00,15.0,10.0,-100.00,NE,51,6.0,11.0,80,0.00,,,0.00,,2013-02-13 18:00:00,
2013-02-13 09:32:00,15.0,10.0,-100.00,NE,51,6.0,11.0,80,0.00,,,0.00,,2013-02-13 18:32:00,
2013-02-13 09:42:00,15.0,10.0,-100.00,NE,51,6.0,11.0,80,0.00,,,0.00,,2013-02-13 18:42:00,
2013-02-13 09:52:00,15.0,10.0,-100.00,NE,51,6.0,11.0,80,0.00,,,0.00,,2013-02-13 18:52:00,
2013-02-13 10:00:00,18.0,12.0,-100.00,NE,55,6.0,11.0,78,0.00,,,0.00,,2013-02-13 19:00:00,
2013-02-13 10:32:00,18.0,12.0,-100.00,NE,55,6.0,11.0,78,0.00,,,0.00,,2013-02-13 19:32:00,
2013-02-13 10:42:00,18.0,12.0,-100.00,NE,55,6.0,11.0,78,0.00,,,0.00,,2013-02-13 19:42:00,
2013-02-13 10:52:00,18.0,12.0,-100.00,NE,55,6.0,11.0,78,0.00,,,0.00,,2013-02-13 19:52:00,
2013-02-13 11:00:00,22.0,14.0,-100.00,ENE,57,6.0,11.0,71,0.00,,,0.00,,2013-02-13 20:00:00,
2013-02-13 11:32:00,22.0,14.0,-100.00,ENE,57,6.0,11.0,71,0.00,,,0.00,,2013-02-13 20:32:00,
2013-02-13 11:42:00,22.0,14.0,-100.00,ENE,57,6.0,11.0,71,0.00,,,0.00,,2013-02-13 20:42:00,
2013-02-13 11:52:00,22.0,14.0,-100.00,ENE,57,6.0,11.0,71,0.00,,,0.00,,2013-02-13 20:52:00,
2013-02-13 12:00:00,22.0,13.0,-100.00,ENE,60,6.0,11.0,68,0.00,,,-99.99,,2013-02-13 21:00:00,
2013-02-13 12:32:00,22.0,13.0,-100.00,ENE,60,6.0,11.0,68,0.00,,,-99.99,,2013-02-13 21:32:00,
2013-02-13 12:42:00,22.0,13.0,-100.00,ENE,60,6.0,11.0,68,0.00,,,-99.99,,2013-02-13 21:42:00,
2013-02-13 12:52:00,22.0,13.0,-100.00,ENE,60,6.0,11.0,68,0.00,,,-99.99,,2013-02-13 21:52:00,
2013-02-13 13:00:00,26.0,14.0,-100.00,ENE,62,6.0,12.0,60,0.00,,,0.00,,2013-02-13 22:00:00,
2013-02-13 13:32:00,26.0,14.0,-100.00,ENE,62,6.0,12.0,60,0.00,,,0.00,,2013-02-13 22:32:00,
2013-02-13 13:42:00,26.0,14.0,-100.00,ENE,62,6.0,12.0,60,0.00,,,0.00,,2013-02-13 22:42:00,
2013-02-13 13:52:00,26.0,14.0,-100.00,ENE,62,6.0,12.0,60,0.00,,,0.00,,2013-02-13 22:52:00,
2013-02-13 14:00:00,23.0,13.0,-100.00,ENE,58,6.0,11.0,64,0.00,,,-99.99,,2013-02-13 23:00:00,
2013-02-13 14:32:00,23.0,13.0,-100.00,ENE,58,6.0,11.0,64,0.00,,,-99.99,,2013-02-13 23:32:00,
2013-02-13 14:42:00,23.0,13.0,-100.00,ENE,58,6.0,11.0,64,0.00,,,-99.99,,2013-02-13 23:42:00,
2013-02-13 14:52:00,23.0,13.0,-100.00,ENE,58,6.0,11.0,64,0.00,,,-99.99,,2013-02-13 23:52:00,
2013-02-13 15:00:00,23.0,11.0,-100.00,ENE,61,7.0,13.0,60,0.00,,,0.00,,2013-02-14 00:00:00,
2013-02-13 15:32:00,23.0,11.0,-100.00,ENE,61,7.0,13.0,60,0.00,,,0.00,,2013-02-14 00:32:00,
2013-02-13 15:42:00,23.0,11.0,-100.00,ENE,61,7.0,13.0,60,0.00,,,0.00,,2013-02-14 00:42:00,
2013-02-13 15:52:00,23.0,11.0,-100.00,ENE,61,7.0,13.0,60,0.00,,,0.00,,2013-02-14 00:52:00,
2013-02-13 16:00:00,22.0,10.0,-100.00,ENE,57,7.0,13.0,60,0.00,,,0.00,,2013-02-14 01:00:00,
2013-02-13 16:32:00,22.0,10.0,-100.00,ENE,57,7.0,13.0,60,0.00,,,0.00,,2013-02-14 01:32:00,
2013-02-13 16:42:00,22.0,10.0,-100.00,ENE,57,7.0,13.0,60,0.00,,,0.00,,2013-02-14 01:42:00,
2013-02-13 16:51:00,22.0,10.0,-100.00,ENE,57,7.0,13.0,60,0.00,,,0.00,,2013-02-14 01:51:00,
2013-02-13 17:00:00,19.0,9.0,-100.00,NE,51,7.0,13.0,64,0.00,,,0.00,,2013-02-14 02:00:00,
2013-02-13 17:32:00,19.0,9.0,-100.00,NE,51,7.0,13.0,64,0.00,,,0.00,,2013-02-14 02:32:00,
2013-02-13 17:42:00,19.0,9.0,-100.00,NE,51,7.0,13.0,64,0.00,,,0.00,,2013-02-14 02:42:00,
2013-02-13 17:51:00,19.0,9.0,-100.00,NE,51,7.0,13.0,64,0.00,,,0.00,,2013-02-14 02:51:00,
2013-02-13 18:00:00,19.0,9.0,-100.00,NE,48,6.0,12.0,64,0.00,,,0.00,,2013-02-14 03:00:00,
2013-02-13 18:32:00,19.0,9.0,-100.00,NE,48,6.0,12.0,64,0.00,,,0.00,,2013-02-14 03:32:00,
2013-02-13 18:42:00,19.0,9.0,-100.00,NE,48,6.0,12.0,64,0.00,,,0.00,,2013-02-14 03:42:00,
2013-02-13 18:52:00,19.0,9.0,-100.00,NE,48,6.0,12.0,64,0.00,,,0.00,,2013-02-14 03:52:00,
2013-02-13 19:00:00,19.0,9.0,-100.00,NE,52,6.0,11.0,65,0.00,,,0.00,,2013-02-14 04:00:00,
2013-02-13 19:32:00,19.0,9.0,-100.00,NE,52,6.0,11.0,65,0.00,,,0.00,,2013-02-14 04:32:00,
2013-02-13 19:42:00,19.0,9.0,-100.00,NE,52,6.0,11.0,65,0.00,,,0.00,,2013-02-14 04:42:00,
2013-02-13 19:52:00,19.0,9.0,-100.00,NE,52,6.0,11.0,65,0.00,,,0.00,,2013-02-14 04:52:00,
2013-02-13 20:00:00,19.0,9.0,-100.00,NE,44,6.0,12.0,64,0.00,,,0.00,,2013-02-14 05:00:00,
2013-02-13 20:32:00,19.0,9.0,-100.00,NE,44,6.0,12.0,64,0.00,,,0.00,,2013-02-14 05:32:00,
2013-02-13 20:42:00,19.0,9.0,-100.00,NE,44,6.0,12.0,64,0.00,,,0.00,,2013-02-14 05:42:00,
2013-02-13 20:52:00,19.0,9.0,-100.00,NE,44,6.0,12.0,64,0.00,,,0.00,,2013-02-14 05:52:00,
2013-02-13 21:00:00,20.0,10.0,-100.00,NE,47,6.0,11.0,64,0.00,,,0.00,,2013-02-14 06:00:00,
2013-02-13 21:32:00,20.0,10.0,-100.00,NE,47,6.0,11.0,64,0.00,,,0.00,,2013-02-14 06:32:00,
2013-02-13 21:42:00,20.0,10.0,-100.00,NE,47,6.0,11.0,64,0.00,,,0.00,,2013-02-14 06:42:00,
2013-02-13 21:52:00,20.0,10.0,-100.00,NE,47,6.0,11.0,64,0.00,,,0.00,,2013-02-14 06:52:00,
2013-02-13 22:00:00,20.0,9.0,-100.00,NE,44,6.0,12.0,63,0.00,,,0.00,,2013-02-14 07:00:00,
2013-02-13 22:32:00,20.0,9.0,-100.00,NE,44,6.0,12.0,63,0.00,,,0.00,,2013-02-14 07:32:00,
2013-02-13 22:42:00,20.0,9.0,-100.00,NE,44,6.0,12.0,63,0.00,,,0.00,,2013-02-14 07:42:00,
2013-02-13 22:52:00,20.0,9.0,-100.00,NE,44,6.0,12.0,63,0.00,,,0.00,,2013-02-14 07:52:00,
2013-02-13 23:00:00,20.0,9.0,-100.00,NE,44,7.0,12.0,61,0.00,,,0.00,,2013-02-14 08:00:00,
2013-02-13 23:32:00,20.0,9.0,-100.00,NE,44,7.0,12.0,61,0.00,,,0.00,,2013-02-14 08:32:00,
2013-02-13 23:43:00,20.0,9.0,-100.00,NE,44,7.0,12.0,61,0.00,,,0.00,,2013-02-14 08:43:00,
2013-02-13 23:52:00,20.0,9.0,-100.00,NE,44,7.0,12.0,61,0.00,,,0.00,,2013-02-14 08:52:00,